Weather History for EDQM - December, 2012

Change the Weather History Date:

Monday, December 31, 2012

  Actual Average Record
Temperature  
Mean Temperature 38 °F -  
Max Temperature 41 °F - - ()
Min Temperature 35 °F - - ()
Degree Days  
Heating Degree Days 27    
Moisture  
Dew Point 33 °F    
Average Humidity 76    
Maximum Humidity 84    
Minimum Humidity 70    
Precipitation  
Precipitation 0.00 in - - ()
Sea Level Pressure  
Sea Level Pressure 30.04 in    
Wind  
Wind Speed 13 mph ()    
Max Wind Speed 17 mph    
Max Gust Speed 28 mph    
Visibility 7.6 miles    
Events Rain    
T = Trace of Precipitation, MM = Missing Value Source: Averaged Metar Reports

Daily Weather History Graph

Daily Weather History Graph

Search for Another Location

Airport or City:

Trip Planner

Search our weather history database for the weather conditions in past years. The results will help you decide how hot, cold, wet, or windy it might be!

Date:

Astronomy

Dec. 31, 2012 Rise Set
Actual Time 8:12 AM CET 4:19 PM CET
Civil Twilight 7:33 AM CET 4:57 PM CET
Nautical Twilight 6:52 AM CET 5:39 PM CET
Astronomical Twilight 6:12 AM CET 6:19 PM CET
Moon 7:54 PM CET (12/31) 9:25 AM CET (12/31)
Length of Visible Light 9h 23m
Length of Day
8h 06m
Waning Gibbous, 92% of the Moon is Illuminated
Dec 31
Waning Gibbous
Jan 5
Last Quarter
Jan 11
New
Jan 19
First Quarter
Jan 27
Full

Hourly Weather History & Observations

Time (CET) Temp. Windchill Dew Point Humidity Pressure Visibility Wind Dir Wind Speed Gust Speed Precip Events Conditions
12:00 AM 39 °F - 35 °F 80% 30.17 in 19 mi SW 15.7 mph - - Rain Rain
12:20 AM 39.2 °F 30.2 °F 32.0 °F 75% 30.12 in 6.2 mi SW 17.3 mph - N/A   Overcast
12:50 AM 39.2 °F 30.2 °F 32.0 °F 75% 30.12 in 6.2 mi SW 17.3 mph - N/A   Overcast
1:00 AM 39 °F - 35 °F 79% 30.17 in 19 mi SW 15.7 mph - - Rain Rain
1:20 AM 39.2 °F 30.5 °F 33.8 °F 81% 30.12 in 6.2 mi SW 16.1 mph - N/A Rain Light Rain
1:50 AM 39.2 °F 30.5 °F 32.0 °F 75% 30.09 in 6.2 mi SW 16.1 mph - N/A   Overcast
2:00 AM 38 °F - 35 °F 84% 30.17 in 19 mi SW 13.4 mph - - Rain Rain
2:20 AM 39.2 °F 30.8 °F 32.0 °F 75% 30.12 in 6.2 mi SW 15.0 mph - N/A   Overcast
2:50 AM 39.2 °F 30.5 °F 32.0 °F 75% 30.12 in 6.2 mi SW 16.1 mph - N/A   Mostly Cloudy
3:00 AM 39 °F - 35 °F 80% 30.18 in 19 mi SW 13.4 mph - - Rain Light Drizzle
3:20 AM 39.2 °F 30.5 °F 33.8 °F 81% 30.12 in 6.2 mi SW 16.1 mph - N/A   Overcast
3:50 AM 39.2 °F 30.5 °F 33.8 °F 81% 30.12 in 6.2 mi SW 16.1 mph - N/A   Overcast
4:20 AM 39.2 °F 30.8 °F 33.8 °F 81% 30.12 in 6.2 mi SW 15.0 mph - N/A   Overcast
4:50 AM 39.2 °F 30.5 °F 33.8 °F 81% 30.09 in 6.2 mi SW 16.1 mph - N/A   Overcast
5:00 AM 39 °F - 35 °F 81% 30.17 in 19 mi SW 11.2 mph - -   Overcast
5:20 AM 39.2 °F 30.5 °F 33.8 °F 81% 30.12 in 6.2 mi SSW 16.1 mph - N/A   Overcast
5:50 AM 39.2 °F 30.5 °F 33.8 °F 81% 30.09 in 6.2 mi SW 16.1 mph 27.6 mph N/A   Overcast
6:00 AM 39 °F - 35 °F 82% 30.17 in 22 mi SW 8.9 mph - -   Partly Cloudy
6:20 AM 39.2 °F 31.6 °F 33.8 °F 81% 30.09 in 6.2 mi SW 12.7 mph - N/A   Overcast
6:50 AM 39.2 °F 31.6 °F 33.8 °F 81% 30.09 in 6.2 mi SSW 12.7 mph - N/A   Overcast
7:00 AM 39 °F - 35 °F 82% 30.16 in 22 mi SSW 8.9 mph - -   Partly Cloudy
7:20 AM 39.2 °F 30.8 °F 32.0 °F 75% 30.09 in 6.2 mi SSW 15.0 mph - N/A   Overcast
7:50 AM 39.2 °F 31.6 °F 32.0 °F 75% 30.09 in 6.2 mi SSW 12.7 mph - N/A   Mostly Cloudy
8:00 AM 39 °F - 35 °F 82% 30.15 in 25 mi SW 8.9 mph - -   Mostly Cloudy
8:20 AM 39.2 °F 31.2 °F 33.8 °F 81% 30.09 in 6.2 mi SSW 13.8 mph - N/A   Overcast
8:50 AM 39.2 °F 30.2 °F 33.8 °F 81% 30.09 in 6.2 mi SSW 17.3 mph - N/A   Mostly Cloudy
9:00 AM 39 °F - 35 °F 81% 30.15 in 22 mi SSW 11.2 mph - -   Partly Cloudy
9:20 AM 39.2 °F 30.8 °F 33.8 °F 81% 30.09 in 6.2 mi SSW 15.0 mph - N/A   Overcast
9:50 AM 39.2 °F 30.5 °F 33.8 °F 81% 30.09 in 6.2 mi SW 16.1 mph - N/A   Overcast
10:20 AM 39.2 °F 30.5 °F 33.8 °F 81% 30.09 in 6.2 mi SSW 16.1 mph - N/A   Overcast
10:50 AM 39.2 °F 30.2 °F 33.8 °F 81% 30.06 in 6.2 mi SSW 17.3 mph - N/A   Overcast
11:00 AM 40 °F - 35 °F 77% 30.13 in 25 mi SSW 11.2 mph - -   Overcast
11:20 AM 39.2 °F 30.5 °F 33.8 °F 81% 30.06 in 6.2 mi SSW 16.1 mph - N/A   Overcast
11:50 AM 41.0 °F 33.9 °F 32.0 °F 70% 30.06 in 6.2 mi SSW 12.7 mph - N/A   Overcast
12:00 PM 40 °F - 35 °F 75% 30.12 in 28 mi SSW 8.9 mph - -   Mostly Cloudy
12:20 PM 39.2 °F 31.2 °F 32.0 °F 75% 30.06 in 6.2 mi SSW 13.8 mph - N/A   Overcast
12:50 PM 41.0 °F 34.3 °F 32.0 °F 70% 30.04 in 6.2 mi SSW 11.5 mph - N/A   Overcast
1:00 PM 40 °F - 35 °F 76% 30.10 in 34 mi SSW 11.2 mph - -   Overcast
1:20 PM 41.0 °F 34.3 °F 33.8 °F 76% 30.04 in 6.2 mi SSW 11.5 mph - N/A   Overcast
1:50 PM 41.0 °F 33.5 °F 32.0 °F 70% 30.01 in 6.2 mi SSW 13.8 mph 25.3 mph N/A   Overcast
2:00 PM 41 °F - 35 °F 71% 30.07 in 31 mi SSW 11.2 mph - -   Overcast
2:20 PM 41.0 °F 32.5 °F 32.0 °F 70% 30.01 in 6.2 mi SSW 17.3 mph - N/A   Overcast
2:50 PM 41.0 °F 33.1 °F 32.0 °F 70% 30.01 in 6.2 mi SSW 15.0 mph - N/A   Mostly Cloudy
3:00 PM 40 °F - 35 °F 74% 30.06 in 25 mi SW 11.2 mph - -   Overcast
3:20 PM 41.0 °F 34.3 °F 32.0 °F 70% 30.01 in 6.2 mi SSW 11.5 mph - N/A   Mostly Cloudy
3:50 PM 41.0 °F 33.5 °F 32.0 °F 70% 30.01 in 6.2 mi SSW 13.8 mph - N/A   Mostly Cloudy
4:20 PM 41.0 °F 34.7 °F 32.0 °F 70% 29.98 in 6.2 mi SSW 10.4 mph - N/A   Mostly Cloudy
4:50 PM 41.0 °F 33.9 °F 32.0 °F 70% 29.98 in 6.2 mi SSW 12.7 mph - N/A   Overcast
5:00 PM 40 °F - 35 °F 75% 30.03 in 25 mi SSW 8.9 mph - -   Overcast
5:20 PM 41.0 °F 33.5 °F 32.0 °F 70% 29.98 in 6.2 mi SSW 13.8 mph - N/A   Mostly Cloudy
5:50 PM 41.0 °F 33.1 °F 32.0 °F 70% 29.95 in 6.2 mi SSW 15.0 mph - N/A   Overcast
6:00 PM 40 °F - 35 °F 74% 30.00 in 25 mi SSW 13.4 mph - -   Mostly Cloudy
6:20 PM 41.0 °F 33.9 °F 32.0 °F 70% 29.95 in 6.2 mi SSW 12.7 mph - N/A   Overcast
6:50 PM 41.0 °F 34.3 °F 32.0 °F 70% 29.95 in 6.2 mi South 11.5 mph - N/A   Overcast
7:00 PM 40 °F - 35 °F 74% 29.98 in 22 mi South 8.9 mph - -   Overcast
7:20 PM 41.0 °F 33.5 °F 32.0 °F 70% 29.92 in 6.2 mi SSW 13.8 mph - N/A   Overcast
7:50 PM 39.2 °F 32.5 °F 32.0 °F 75% 29.92 in 6.2 mi SSW 10.4 mph - N/A   Overcast
8:00 PM 40 °F - 34 °F 72% 29.97 in 22 mi South 8.9 mph - -   Mostly Cloudy
8:20 PM 39.2 °F 32.0 °F 32.0 °F 75% 29.92 in 6.2 mi SSW 11.5 mph - N/A   Overcast
8:50 PM 39.2 °F 31.2 °F 32.0 °F 75% 29.89 in 6.2 mi SSW 13.8 mph - N/A   Scattered Clouds
9:00 PM 39 °F - 33 °F 73% 29.95 in 22 mi South 8.9 mph - -   Partly Cloudy
9:20 PM 37.4 °F 28.9 °F 30.2 °F 75% 29.86 in 6.2 mi South 13.8 mph - N/A   Unknown
9:50 PM 37.4 °F 28.9 °F 30.2 °F 75% 29.89 in 6.2 mi SSW 13.8 mph - N/A   Unknown
10:20 PM 37.4 °F 28.5 °F 30.2 °F 75% 29.86 in 6.2 mi SSW 15.0 mph - N/A   Unknown
10:50 PM 37.4 °F 29.3 °F 30.2 °F 75% 29.86 in 6.2 mi South 12.7 mph - N/A   Unknown
11:00 PM 37 °F - 32 °F 77% 29.92 in 19 mi South 11.2 mph - -   Overcast
11:20 PM 35.6 °F 27.1 °F 30.2 °F 81% 29.86 in 6.2 mi South 12.7 mph - N/A   Unknown
11:50 PM 35.6 °F 28.6 °F 28.4 °F 75% 29.86 in 6.2 mi South 9.2 mph - N/A   Unknown